Simultaneous Nadir Overpasses (SNOs) Predictions

Prediction of SNOs between GOES-16 and AQUA Satellite Orbit:

Table of predicted SNOs for the next 14.0 days since TLE Epoch: 4/3/2021
Index Date Time (GOES-16) GOES-16 Lat,Lon AQUA Lat,Lon Distance(km) Time Diff (sec)
1 04/03/2021 06:50:29 -0.03, -75.20 0.63, -78.31 353.94 80
2 04/05/2021 06:38:17 -0.03, -75.20 0.02, -75.35 18.19 80
3 04/07/2021 06:23:25 -0.02, -75.20 -0.59, -72.39 318.68 80
4 04/07/2021 18:44:49 0.02, -75.20 -0.47, -77.59 271.32 80
5 04/09/2021 18:35:17 0.01, -75.22 0.14, -74.63 66.64 80
6 04/11/2021 18:23:06 0.01, -75.24 0.77, -71.68 405.29 80
7 04/12/2021 06:44:20 -0.01, -75.25 0.34, -76.83 180.04 80
8 04/14/2021 06:29:28 -0.02, -75.28 -0.29, -73.87 159.14 80
9 04/14/2021 18:50:53 0.01, -75.28 -0.77, -79.07 430.87 80
10 04/16/2021 06:17:16 -0.02, -75.30 -0.92, -70.91 498.63 80
11 04/16/2021 18:38:41 0.01, -75.31 -0.14, -76.12 91.22 80
